Showing default

RADUGA 21, 18631

Orbit data source: Space-Track

RADUGA 21, 18631 is a payload satellite owned by UNKS (CIS) in GEO that was launched on Thu, 10 Dec 1987 UTC via a PROTON-K/DM-2 launch vehicle from the Tyuratam Missile And Space Complex (TTMTR). Payload-class satellites include a variety of spacecraft equipped with specific instruments for various scientific and technological missions. These include communications satellites like Starlink; space stations such as the ISS; scientific satellites like the Hubble; Earth observation satellites from companies like Planet Labs, Umbra, and HawkEye 360; GPS; miniature CubeSats for education and research; and military/defense satellites.

Loading next visibility...
Identifier
18631, 1987-100A
Orbit
GEO
Country
Flag of CISCIS
Related business
Manufacturer
NPO PM
Mission
Non-operational Defense Communications
Bus & Motor
RADUGA, Unknown motor
Mass
1,965 kg wet, ~1,800 kg dry
Launch date (UTC)
1987-12-10 (38 years ago)
Launch vehicle
PROTON-K/DM-2
Launch site
Tyuratam Missile And Space Complex (TTMTR)
Object type
Payload
Rocket body
Debris
Shape & HBR
Cyl + 2 Pan, 4.8 m
Radar Cross Section
16.975 m², Large (>1 m²)

Expand to show TLE details & history
Last TLE update: 22 hours ago

TLE from 22 hours ago
0 RADUGA 21
1 18631U 87100A   25315.32164833  .00000099  00000-0  00000-0 0  9999
2 18631  11.6201 326.7938 0002236 257.6947 153.2249  1.00315955138909
Epoch: 2025-11-11T07:43Z
TLE epoch observation values (Epoch: 2025-11-11T07:43:10.415Z)
Latitude
9.01371°
Longitude
-149.37298°
Altitude
35,781.537 km
Speed
3.075 km/s
True Right ascension
01h 08m 31s
True Declination
9° 00' 17"
Sunlit
Object was in daylight at epoch
Visualization orbit readout
Latitude
Unknown
Longitude
Unknown
Altitude
Unknown
Speed
Unknown
Apparent Right ascension
Unknown
Apparent Declination
Unknown
Sunlit
N/A
Visualization observer readout
Local Sidereal Time
02:34:37
Azimuth
Unknown
Elevation
Unknown
Doppler factor
Unknown
Orbital elements
Apogee altitude
35,784.65 km
Perigee altitude
35,765.799 km
Semi-major axis
42,153.361 km
Eccentricity
0.00022
Inclination
11.6201°
RAAN
326.7938°
Arg. of periapsis
257.6947°
True anomaly
153.23644°
Mean anomaly
153.2249°
Eccentric anomaly
153.23067°
Mean motion
0.25078 °/min
Orbital period
1,435.51 mins
BSTAR
0
Loading maneuver chart data...
Computing Atmospheric mass density...
Loading historical data...
Loading historical data...
Loading historical data...
Loading historical data...
Loading historical data...
Loading historical data...
Loading historical data...

Documentation

Showing up to 5 results
|